Waarnemingen

Advertentie
Mijn weer
Katterjakk A, Zweden (2019): temperatuur & dauwpunt: 18.10.2018 00:00:00 - 24.10.2018 00:00:00 (CEST)Katterjakk A, Zweden (2019): windsnelheid & windstoten: 18.10.2018 00:00:00 - 24.10.2018 00:00:00 (CEST)Katterjakk A, Zweden (2019): windrichting: 18.10.2018 00:00:00 - 24.10.2018 00:00:00 (CEST)Katterjakk A, Zweden (2019): luchtdruk: 18.10.2018 00:00:00 - 24.10.2018 00:00:00 (CEST)Katterjakk A, Zweden (2019): zicht: 18.10.2018 00:00:00 - 24.10.2018 00:00:00 (CEST)Katterjakk A, Zweden (2019): neerslag: 18.10.2018 00:00:00 - 24.10.2018 00:00:00 (CEST)
Datum & Tijd tt [°C] td [°C] ff [km/u] ff [kn] fx [km/u] fx [kn] dd ppp [hPa] vv [km] rr [mm]
24.10.2018 00:00:00 -2,5 -5,3 8 4 12 6 ZZW 992,8 50 0,0
23.10.2018 23:00:00 -1,8 -5,5 8 4 12 6 NW 992,1 50 0,0
23.10.2018 22:00:00 - - - - - - - - - -
23.10.2018 21:00:00 -3,0 -6,5 4 2 14 8 ZZW 991,3 50 0,0
23.10.2018 20:00:00 -2,5 -6,5 3 2 14 8 ZZW 990,7 50 0,0
23.10.2018 19:00:00 -2,7 -6,2 8 4 22 12 ZZW 990,2 50 0,0
23.10.2018 18:00:00 -3,9 -7,3 4 2 26 14 Z 989,9 50 0,0
23.10.2018 17:00:00 -4,4 -7,7 21 11 26 14 Z 989,5 50 0,0
23.10.2018 16:00:00 -4,4 -7,0 7 4 24 13 ZW 989,1 50 0,0
23.10.2018 15:00:00 -5,1 -7,5 8 5 18 10 ZZW 988,6 50 0,0
23.10.2018 14:00:00 -3,9 -7,7 9 5 22 12 ZZW 988,1 50 0,0
23.10.2018 13:00:00 -3,3 -7,3 17 9 22 12 Z 988,0 50 0,0
23.10.2018 12:00:00 -3,0 -6,5 9 5 15 8 Z 988,2 50 0,0
23.10.2018 11:00:00 -2,1 -6,6 3 2 28 15 NW 987,9 48 0,0
23.10.2018 10:00:00 -2,5 -6,3 3 1 28 15 O 987,9 50 0,0
23.10.2018 09:00:00 -1,6 -6,7 17 9 27 15 ZW 987,8 50 0,0
23.10.2018 08:00:00 -2,1 -6,1 16 9 22 12 WZW 987,6 50 0,0
23.10.2018 07:00:00 -1,2 -4,7 10 6 20 11 WZW 987,7 50 0,0
23.10.2018 06:00:00 -0,5 -3,9 13 7 29 15 WZW 988,0 50 0,0
23.10.2018 05:00:00 - - - - 29 16 - - - -
23.10.2018 04:00:00 0,0 -3,4 20 11 36 20 W 987,8 50 0,0
23.10.2018 03:00:00 0,2 -3,4 23 13 40 22 WZW 988,1 50 0,0
23.10.2018 02:00:00 0,0 -3,4 24 13 40 22 W 988,0 50 0,0
23.10.2018 01:00:00 0,1 -2,1 16 8 35 19 WZW 988,5 49 0,0
23.10.2018 00:00:00 -0,2 -2,4 25 13 37 20 WZW 988,6 50 0,0
22.10.2018 23:00:00 0,1 -1,5 20 11 41 22 W 989,0 1,8 0,1
22.10.2018 22:00:00 0,4 -1,8 23 12 41 22 W 989,2 6 0,0
22.10.2018 21:00:00 0,0 -2,1 23 13 36 20 WZW 989,4 50 0,4
22.10.2018 20:00:00 -0,4 -1,5 18 10 36 19 ZW 989,4 50 0,6
22.10.2018 19:00:00 0,2 -1,7 21 11 39 21 WZW 989,4 11 0,0
22.10.2018 18:00:00 0,1 -1,7 22 12 39 21 WZW 989,6 27 0,7
22.10.2018 17:00:00 0,1 -0,8 19 10 34 18 W 989,6 0,5 0,4
22.10.2018 16:00:00 0,6 -0,5 20 11 33 18 W 989,3 3,4 0,6
22.10.2018 15:00:00 0,9 -0,7 16 9 33 18 WZW 989,1 11 0,2
22.10.2018 14:00:00 1,3 -1,3 18 10 37 20 ZW 989,2 24 0,0
22.10.2018 13:00:00 1,8 -2,0 22 12 43 23 W 988,8 29 0,1
22.10.2018 12:00:00 2,6 -4,2 23 12 43 23 ZW 988,1 48 0,0
22.10.2018 11:00:00 1,2 -2,7 28 15 41 22 ZW 988,2 50 0,0
22.10.2018 10:00:00 1,1 -1,5 17 9 49 26 ZW 988,7 3,4 0,2
22.10.2018 09:00:00 0,3 -1,5 26 14 49 26 ZW 988,6 9 0,2
22.10.2018 08:00:00 2,5 -4,5 23 13 41 22 WZW 988,5 49 0,0
22.10.2018 07:00:00 1,5 -2,6 18 10 36 20 W 988,7 50 0,1
22.10.2018 06:00:00 -0,4 -2,6 21 11 58 31 W 989,0 50 0,2
22.10.2018 05:00:00 -0,2 -0,9 37 20 58 31 W 990,2 0,5 0,3
22.10.2018 04:00:00 0,0 -1,6 22 12 48 26 WZW 989,8 22 0,8
22.10.2018 03:00:00 0,7 -0,9 16 8 48 26 W 990,2 3,6 0,1
22.10.2018 02:00:00 1,9 -2,4 16 8 45 24 W 990,0 50 0,0
22.10.2018 01:00:00 1,6 -2,0 18 10 45 24 WZW 990,8 22 0,0
22.10.2018 00:00:00 1,5 -1,1 25 14 46 25 W 990,8 14 0,0
21.10.2018 23:00:00 3,3 -3,1 26 14 48 26 W 990,5 42 0,0
21.10.2018 22:00:00 2,7 -2,4 26 14 48 26 W 991,4 14 0,0
21.10.2018 21:00:00 1,9 -1,0 27 15 42 23 W 991,8 10 0,1
21.10.2018 20:00:00 2,1 -1,3 23 12 40 22 ZZW 991,8 50 0,0
21.10.2018 19:00:00 1,5 -0,4 9 5 34 19 W 992,2 30 0,9
21.10.2018 18:00:00 1,9 0,0 14 8 44 24 W 992,3 50 1,6
21.10.2018 17:00:00 0,9 -0,4 19 10 46 25 W 993,1 1,4 1,3
21.10.2018 16:00:00 2,9 -0,7 17 9 66 35 ZW 991,9 17 0,1
21.10.2018 15:00:00 2,9 -1,3 21 11 66 35 ZW 992,2 50 0,5
21.10.2018 14:00:00 2,2 1,2 18 10 61 33 ZW 992,9 8 5,1
21.10.2018 13:00:00 2,4 0,6 38 21 61 33 ZW 992,9 1,8 1,6
21.10.2018 12:00:00 6,7 -2,0 40 22 61 33 ZZW 991,2 49 0,0
21.10.2018 11:00:00 6,2 -1,7 34 19 51 28 ZZW 992,2 39 0,0
21.10.2018 10:00:00 6,7 -1,7 33 18 49 27 ZW 992,8 45 0,0
21.10.2018 09:00:00 4,9 0,3 14 8 39 21 ZW 993,8 50 0,0
21.10.2018 08:00:00 5,7 0,3 24 13 58 32 ZW 993,8 50 0,0
21.10.2018 07:00:00 6,3 0,2 23 13 61 33 ZW 993,8 50 0,0
21.10.2018 06:00:00 5,8 0,8 38 21 77 41 ZZW 994,0 50 0,0
21.10.2018 05:00:00 6,0 0,7 41 22 81 44 Z 994,7 50 0,0
21.10.2018 04:00:00 5,6 0,6 56 30 82 44 Z 995,2 49 0,2
21.10.2018 03:00:00 5,3 0,7 51 27 82 44 Z 997,2 23 0,3
21.10.2018 02:00:00 4,9 0,1 56 30 77 42 ZZW 999,2 15 0,0
21.10.2018 01:00:00 5,6 -1,6 39 21 61 33 Z 1001,9 50 0,0
21.10.2018 00:00:00 5,9 -2,0 44 24 61 33 Z 1003,8 50 0,0
20.10.2018 23:00:00 5,0 -1,5 32 18 49 27 Z 1005,5 50 0,0
20.10.2018 22:00:00 4,6 -0,4 30 16 41 22 ZZW 1007,9 50 0,0
20.10.2018 21:00:00 3,9 2,6 13 7 26 14 Z 1009,9 2,2 0,0
20.10.2018 20:00:00 1,7 1,6 4 2 11 6 NNW 1011,4 8 0,0
20.10.2018 19:00:00 1,8 1,5 6 4 11 6 N 1011,8 3,7 0,0
20.10.2018 18:00:00 1,7 1,4 5 3 9 5 ZW 1012,7 50 0,0
20.10.2018 17:00:00 1,8 1,4 5 3 9 5 N 1013,0 39 0,0
20.10.2018 16:00:00 1,8 1,5 5 3 9 5 WZW 1013,2 50 0,0
20.10.2018 15:00:00 2,3 1,9 6 4 9 5 ZZW 1013,8 39 0,0
20.10.2018 14:00:00 3,0 2,6 0 0 7 4 N 1013,5 50 0,0
20.10.2018 13:00:00 2,8 2,4 4 2 7 4 ONO 1013,3 43 0,0
20.10.2018 12:00:00 2,7 2,3 0 0 5 3 N 1013,5 50 0,2
20.10.2018 11:00:00 2,2 2,1 0 0 5 3 N 1013,8 16 0,5
20.10.2018 10:00:00 1,9 1,8 0 0 6 4 N 1013,7 4,3 0,1
20.10.2018 09:00:00 1,3 1,0 3 1 6 4 Z 1013,6 50 0,0
20.10.2018 08:00:00 1,7 1,4 0 0 6 4 N 1013,6 36 0,1
20.10.2018 07:00:00 1,6 1,2 3 2 9 5 Z 1013,9 9 0,2
20.10.2018 06:00:00 1,5 0,9 7 4 9 5 Z 1013,9 36 0,1
20.10.2018 05:00:00 1,3 0,9 4 2 8 4 ZW 1014,0 50 0,0
20.10.2018 04:00:00 1,5 1,2 2 1 5 3 ZW 1014,3 16 0,1
20.10.2018 03:00:00 1,7 1,4 3 1 7 4 W 1014,4 14 0,1
20.10.2018 02:00:00 2,0 1,4 2 1 10 5 WZW 1014,5 12 0,1
20.10.2018 01:00:00 2,4 1,4 3 2 10 5 WZW 1014,5 17 0,1
20.10.2018 00:00:00 2,3 1,1 6 3 14 8 Z 1014,5 50 0,0
19.10.2018 23:00:00 2,7 1,1 3 2 27 15 ZO 1014,4 50 0,0
19.10.2018 22:00:00 2,3 1,1 9 5 27 15 OZO 1014,6 50 0,0
19.10.2018 21:00:00 1,7 0,7 8 5 18 10 ZW 1014,7 50 0,0
19.10.2018 20:00:00 3,4 2,0 13 7 19 11 WNW 1014,1 50 0,0
19.10.2018 19:00:00 3,5 2,6 6 4 26 14 WNW 1014,2 33 0,0
19.10.2018 18:00:00 3,7 3,0 14 8 32 17 WNW 1013,9 9 0,0
19.10.2018 17:00:00 4,1 3,1 13 7 32 17 W 1014,0 4,2 0,3
19.10.2018 16:00:00 4,2 2,9 18 10 34 18 W 1014,0 9 0,3
19.10.2018 15:00:00 4,4 2,9 16 9 34 18 W 1013,3 4,8 0,4
19.10.2018 14:00:00 4,4 3,4 21 11 41 22 W 1012,7 7 0,2
19.10.2018 13:00:00 4,5 3,0 23 12 41 22 W 1012,0 15 0,2
19.10.2018 12:00:00 4,4 2,9 18 10 45 25 W 1011,4 10 0,1
19.10.2018 11:00:00 4,3 2,8 24 13 45 25 W 1010,8 4,4 0,6
19.10.2018 10:00:00 4,4 3,4 24 13 43 23 WNW 1009,8 35 0,8
19.10.2018 09:00:00 4,3 3,6 21 11 41 22 WNW 1009,1 3,0 0,7
19.10.2018 08:00:00 4,1 3,5 21 11 50 27 W 1008,5 1,3 0,5
19.10.2018 07:00:00 4,1 3,5 24 13 51 28 W 1007,6 3,1 0,1
19.10.2018 06:00:00 4,3 3,3 32 18 53 29 WNW 1006,8 4,4 0,8
19.10.2018 05:00:00 4,5 3,0 33 18 59 32 W 1006,0 14 0,2
19.10.2018 04:00:00 4,5 2,8 33 18 59 32 W 1004,8 45 0,0
19.10.2018 03:00:00 4,9 2,8 32 17 60 32 W 1004,0 50 0,1
19.10.2018 02:00:00 4,8 2,8 29 16 60 32 W 1002,7 8 2,0
19.10.2018 01:00:00 4,5 2,8 24 13 57 31 W 1001,8 12 0,7
19.10.2018 00:00:00 4,7 2,7 36 19 54 29 W 1000,4 5 2,6
18.10.2018 23:00:00 4,1 2,6 24 13 41 22 WZW 1000,0 3,8 5,2
18.10.2018 22:00:00 3,2 2,0 14 8 25 13 WZW 999,4 3,2 2,5
18.10.2018 21:00:00 1,8 1,4 0 0 23 12 N 999,1 10 0,8
18.10.2018 20:00:00 2,4 1,5 5 3 25 14 NW 998,6 17 0,7
18.10.2018 19:00:00 3,7 1,2 17 9 34 18 ZZW 998,6 7 1,2
18.10.2018 18:00:00 4,1 0,8 15 8 52 28 ZW 998,6 13 0,1
18.10.2018 17:00:00 4,5 -0,1 26 14 52 28 ZZW 998,5 40 0,0
18.10.2018 16:00:00 4,5 -0,5 35 19 49 26 Z 998,2 50 0,1
18.10.2018 15:00:00 5,2 -1,5 29 16 49 26 Z 998,6 50 0,0
18.10.2018 14:00:00 4,9 -1,3 35 19 48 26 Z 999,2 50 0,0
18.10.2018 13:00:00 4,8 -1,9 31 17 46 25 ZZW 999,8 50 0,0
18.10.2018 12:00:00 5,1 -3,4 26 14 42 23 ZZW 1000,3 50 0,0
18.10.2018 11:00:00 5,2 -2,4 25 14 42 23 ZZW 1000,7 50 0,0
18.10.2018 10:00:00 3,1 -0,7 4 2 27 15 WZW 1001,5 48 0,0
18.10.2018 09:00:00 3,7 -1,7 10 5 27 15 WZW 1001,3 50 0,0
18.10.2018 08:00:00 1,4 1,0 6 3 18 10 NNO 1001,7 48 0,0
18.10.2018 07:00:00 1,7 1,6 4 2 11 6 W 1002,1 50 0,0
18.10.2018 06:00:00 1,9 1,6 4 2 10 5 W 1002,4 50 0,0
18.10.2018 05:00:00 2,1 1,8 2 1 18 10 WNW 1002,7 31 0,0
18.10.2018 04:00:00 2,9 1,9 2 1 18 10 N 1002,6 50 0,1
18.10.2018 03:00:00 2,6 1,9 7 4 21 11 WNW 1003,0 30 0,0
18.10.2018 02:00:00 4,0 2,0 13 7 21 11 W 1002,8 50 0,7
18.10.2018 01:00:00 1,8 1,7 6 4 11 6 NNW 1003,3 36 0,0
18.10.2018 00:00:00 1,9 1,8 7 4 10 6 ZW 1003,4 50 0,0

tt = temperatuur
td = dauwpunt
ff = windsnelheid
fx = windstoten
dd = windrichting
ppp = luchtdruk
vv = zicht
rr = neerslag

Weerstations in de omgeving